Flag for U.S.A. Weather past 2 weeks in Pittsburgh, Pennsylvania, U.S.A.

Now
9 °F

Light snow. Mostly cloudy.


Feels Like: -2 °F
Forecast: 7 / 12 °F
Wind: 7 mph from Northwest

Location: Allegheny County Airport

Current Time: Feb 27, 2015 at 3:41:05 AM

Latest Report: Feb 27, 2015 at 2:53 AM


Visibility: 1 mi

Pressure: 30.33 "Hg

Humidity: 73%

Dew point: 2 °F

Location of PittsburghLocation

Historic Weather in Pittsburgh — Graph

°F

Pittsburgh temperature yesterday

Maximum temperature yesterday: 25 °F (at 12:53 PM)
Minimum temperature yesterday: 11 °F (at 11:53 PM)
Average temperature yesterday: 19 °F

Past Weeks' High & Low Weather Summary

 TemperatureHumidityPressure
High34 °F (Feb 21, 2:53 PM)92% (Feb 22, 3:02 AM)30.56 "Hg (Feb 22, 3:02 AM)
Low-7 °F (Feb 20, 6:53 AM)23% (Feb 24, 3:53 PM)29.42 "Hg (Feb 14, 2:55 PM)
Average14 °F60%30.12 "Hg
* Reported Feb 12 2:00 AM — Feb 27 2:03 AM, Pittsburgh, Weather by CustomWeather, © 2015

Note: Actual official high and low records may vary slightly from our data, if they occured in-between our weather recording intervals... More about our weather records

Advertising

Pittsburgh weather history for previous 24 hours

 ConditionsComfort  
Time TempWeatherWind HumidityBarometerVisibility
2:03 AM
Fri, Feb 27
10 °FLight snow. Mostly cloudy.7 mph73%30.23 "Hg2 mi
1:53 AM10 °FLight snow. Mostly cloudy.7 mph69%30.31 "Hg3 mi
12:53 AM10 °FLight snow. Overcast.7 mph73%30.29 "Hg2 mi
11:53 PM
Thu, Feb 26
11 °FLight snow. Overcast.7 mph73%30.27 "Hg2 mi
10:53 PM12 °FLight snow. Overcast.7 mph70%30.25 "Hg1 mi
10:02 PM13 °FLight snow. Mostly cloudy.8 mph70%30.16 "Hg1 mi
8:53 PM14 °FLight snow. Overcast.8 mph71%30.20 "Hg2 mi
7:53 PM15 °FLight snow. Overcast.10 mph70%30.18 "Hg7 mi
6:53 PM17 °FPassing clouds.12 mph64%30.14 "Hg10 mi
5:53 PM19 °FOvercast.8 mph65%30.09 "Hg9 mi
4:53 PM20 °FPartly sunny.9 mph71%30.05 "Hg7 mi
3:53 PM21 °FLight snow. Mostly cloudy.12 mph71%30.03 "Hg2 mi
3:00 PM21 °FLight snow. Mostly cloudy.12 mph71%29.95 "Hg1 mi
1:55 PM23 °FLight snow. Mostly cloudy.13 mph65%29.93 "Hg1 mi
12:53 PM25 °FLight snow. Overcast.7 mph55%29.97 "Hg3 mi
11:53 AM24 °FMostly cloudy.8 mph52%29.96 "Hg8 mi
10:53 AM23 °FMostly cloudy.6 mph46%29.95 "Hg10 mi
9:53 AM23 °FOvercast.6 mph44%29.95 "Hg10 mi
8:53 AM19 °FOvercast.9 mph49%29.95 "Hg10 mi
7:53 AM18 °FOvercast.12 mph52%29.94 "Hg10 mi
6:53 AM19 °FOvercast.8 mph49%29.91 "Hg10 mi
5:53 AM19 °FOvercast.7 mph49%29.90 "Hg10 mi
4:53 AM20 °FOvercast.8 mph48%29.90 "Hg10 mi
3:53 AM20 °FOvercast.7 mph48%29.90 "Hg10 mi
Weather by CustomWeather, © 2015

See weather overviewHow to use our weather pages